Weather History for KLVK - September, 2011

Change the Weather History Date:

Saturday, September 24, 2011

  Actual Average Record
Temperature  
Mean Temperature 68 °F 68 °F  
Max Temperature 76 °F 83 °F 106 °F (1936)
Min Temperature 59 °F 54 °F 41 °F (1948)
Degree Days  
Heating Degree Days 0 1  
Month to date heating degree days 0 7  
Since 1 July heating degree days 9 14  
Cooling Degree Days 3 4  
Month to date cooling degree days 211 141  
Year to date cooling degree days 717 766  
Growing Degree Days 18 (Base 50)    
Moisture  
Dew Point 53 °F    
Average Humidity 64    
Maximum Humidity 84    
Minimum Humidity 44    
Precipitation  
Precipitation 0.00 in 0.01 in 0.24 in (1982)
Month to date precipitation T 0.11  
Year to date precipitation 9.77 10.02  
Since 1 July precipitation T 0.12  
Sea Level Pressure  
Sea Level Pressure 29.92 in    
Wind  
Wind Speed 12 mph (West)    
Max Wind Speed 25 mph    
Max Gust Speed 31 mph    
Visibility 10 miles    
Events      
T = Trace of Precipitation, MM = Missing Value Source: NWS Daily Summary

Daily Weather History Graph

Daily Weather History Graph

Search for Another Location

Airport or City:

Trip Planner

Search our weather history database for the weather conditions in past years. The results will help you decide how hot, cold, wet, or windy it might be!

Date:

Astronomy

Sep. 24, 2011 Rise Set
Actual Time 6:56 AM PDT 7:01 PM PDT
Civil Twilight 6:30 AM PDT 7:27 PM PDT
Nautical Twilight 5:59 AM PDT 7:57 PM PDT
Astronomical Twilight 5:28 AM PDT 8:28 PM PDT
Moon 3:41 AM PDT (9/24) 5:08 PM PDT (9/24)
Length of Visible Light 12h 57m
Length of Day
12h 04m
Waning Crescent, 10% of the Moon is Illuminated
Sep 24
Waning Crescent
Sep 27
New
Oct 3
First Quarter
Oct 11
Full
Oct 19
Last Quarter

Hourly Weather History & Observations

Time (PDT) Temp. Dew Point Humidity Pressure Visibility Wind Dir Wind Speed Gust Speed Precip Events Conditions
12:53 AM 70.0 °F 48.0 °F 46% 29.86 in 10.0 mi Calm Calm - N/A   Clear
1:53 AM 69.1 °F 48.9 °F 49% 29.88 in 10.0 mi East 6.9 mph - N/A   Clear
3:53 AM 70.0 °F 48.0 °F 46% 29.83 in 10.0 mi Calm Calm - N/A   Clear
4:53 AM 69.1 °F 54.0 °F 58% 29.84 in 10.0 mi WNW 6.9 mph - N/A   Clear
5:53 AM 68.0 °F 53.1 °F 59% 29.86 in 10.0 mi WNW 9.2 mph - N/A   Clear
6:53 AM 63.0 °F 53.1 °F 70% 29.87 in 10.0 mi WNW 10.4 mph - N/A   Clear
7:53 AM 63.0 °F 53.1 °F 70% 29.90 in 10.0 mi WNW 9.2 mph - N/A   Clear
8:53 AM 66.9 °F 54.0 °F 63% 29.90 in 10.0 mi West 3.5 mph - N/A   Clear
9:53 AM 71.1 °F 54.0 °F 55% 29.91 in 10.0 mi WNW 10.4 mph - N/A   Clear
10:53 AM 73.9 °F 55.0 °F 52% 29.91 in 10.0 mi WNW 12.7 mph - N/A   Clear
11:53 AM 75.0 °F 54.0 °F 48% 29.90 in 10.0 mi WNW 18.4 mph - N/A   Clear
12:53 PM 75.0 °F 53.1 °F 46% 29.91 in 10.0 mi West 20.7 mph - N/A   Clear
1:53 PM 73.9 °F 54.0 °F 50% 29.90 in 10.0 mi WNW 17.3 mph - N/A   Clear
2:53 PM 70.0 °F 55.0 °F 59% 29.90 in 10.0 mi WNW 21.9 mph - N/A   Clear
4:53 PM 69.1 °F 55.0 °F 61% 29.89 in 10.0 mi WNW 18.4 mph - N/A   Mostly Cloudy
4:55 PM 68.0 °F 55.4 °F 64% 29.90 in 10.0 mi WNW 19.6 mph - N/A   Mostly Cloudy
5:53 PM 64.0 °F 55.0 °F 73% 29.93 in 10.0 mi West 17.3 mph 28.8 mph N/A   Mostly Cloudy
6:53 PM 60.1 °F 55.0 °F 83% 29.93 in 10.0 mi West 17.3 mph - N/A   Mostly Cloudy
6:54 PM 60.8 °F 55.4 °F 82% 29.94 in 10.0 mi West 17.3 mph - N/A   Mostly Cloudy
6:56 PM 60.8 °F 55.4 °F 82% 29.94 in 10.0 mi West 16.1 mph - N/A   Mostly Cloudy
7:53 PM 60.1 °F 53.1 °F 78% 29.95 in 10.0 mi West 16.1 mph - N/A   Mostly Cloudy
9:53 PM 60.1 °F 52.0 °F 75% 29.95 in 10.0 mi SW 5.8 mph - N/A   Scattered Clouds
10:04 PM 60.8 °F 53.6 °F 77% 29.96 in 10.0 mi WSW 5.8 mph - N/A   Mostly Cloudy
10:53 PM 60.1 °F 53.1 °F 78% 29.97 in 10.0 mi West 9.2 mph - N/A   Overcast
11:24 PM 60.8 °F 53.6 °F 77% 29.98 in 10.0 mi West 12.7 mph - N/A   Scattered Clouds
11:32 PM 60.8 °F 53.6 °F 77% 29.98 in 10.0 mi WSW 6.9 mph - N/A   Mostly Cloudy
11:39 PM 60.8 °F 53.6 °F 77% 29.98 in 10.0 mi SW 6.9 mph - N/A   Scattered Clouds
11:53 PM 60.1 °F 52.0 °F 75% 29.97 in 10.0 mi SW 9.2 mph - N/A   Partly Cloudy